This demonstration page uses our WeatherBlox Daily Observations layout. Learn more.

Left ArrowRight Arrow

40.92501, -98.34201

Hourly Observations for August 20, 2020

Temp ( °F °C ) Dew Point ( °F °C ) Humidity (%) Winds ( mph kmh ) Pressure ( in mb ) Visibility ( mi km ) Precip ( " mm )
12:53 am 00:53 Clear 69 20.6 60 15.6 73 73 S 12 19 29.95 1014 10 16 0.00 0.00
1:53 am 01:53 Clear 67 19.4 60 15.6 79 79 S 10 17 29.95 1014 10 16 0.00 0.00
2:53 am 02:53 Clear 67 19.4 59 15 76 76 S 12 19 29.94 1014 10 16 0.00 0.00
3:53 am 03:53 Clear 66 18.9 59 15 78 78 S 10 17 29.92 1013 10 16 0.00 0.00
4:53 am 04:53 Clear 67 19.4 58 14.4 73 73 S 13 20 29.92 1013 10 16 0.00 0.00
5:53 am 05:53 Clear 64 17.8 58 14.4 81 81 S 9 15 29.92 1013 10 16 0.00 0.00
6:53 am 06:53 Sunny 63 17.2 58 14.4 84 84 S 9 15 29.93 1013 10 16 0.00 0.00
7:53 am 07:53 Sunny 66 18.9 58 14.4 75 75 S 12 19 29.94 1014 10 16 0.00 0.00
8:53 am 08:53 Sunny 71 21.7 58 14.4 63 63 S 13 20 29.93 1013 10 16 0.00 0.00
9:53 am 09:53 Sunny 76 24.4 58 14.4 54 54 SSW 14 22 29.91 1013 10 16 0.00 0.00
10:53 am 10:53 Sunny 79 26.1 59 15 50 50 SSW 16 26 29.90 1013 10 16 0.00 0.00
11:53 am 11:53 Sunny 82 27.8 60 15.6 47 47 S 15 24 29.88 1012 10 16 0.00 0.00
12:53 pm 12:53 Sunny 86 30 62 16.7 45 45 SSW 14 22 29.86 1011 10 16 0.00 0.00
1:53 pm 13:53 Sunny 87 30.6 62 16.7 43 43 S 15 24 29.85 1011 10 16 0.00 0.00
2:53 pm 14:53 Sunny 89 31.7 63 17.2 42 42 S 14 22 29.83 1010 10 16 0.00 0.00
3:53 pm 15:53 Sunny 89 31.7 62 16.7 41 41 SSW 15 24 29.82 1010 10 16 0.00 0.00
4:53 pm 16:53 Sunny 87 30.6 63 17.2 45 45 SSE 10 17 29.82 1010 10 16 0.00 0.00
5:53 pm 17:53 Sunny 85 29.4 65 18.3 51 51 SSE 9 15 29.82 1010 10 16 0.00 0.00
6:53 pm 18:53 Sunny 82 27.8 67 19.4 60 60 SSE 10 17 29.82 1010 10 16 0.00 0.00
7:53 pm 19:53 Sunny 80 26.7 67 19.4 64 64 S 13 20 29.80 1009 10 16 0.00 0.00
8:53 pm 20:53 Clear 80 26.7 65 18.3 60 60 S 10 17 29.81 1010 10 16 0.00 0.00
9:53 pm 21:53 Clear 77 25 66 18.9 69 69 S 13 20 29.81 1009 10 16 0.00 0.00
10:53 pm 22:53 Clear 76 24.4 63 17.2 64 64 S 15 24 29.81 1009 10 16 0.00 0.00
11:53 pm 23:53 Clear 73 22.8 62 16.7 69 69 S 13 20 29.82 1010 10 16 0.00 0.00

Powered by AerisWeather